User: anonymous   Login
Location: Unspecified
(0.0000°N, 0.0000°E)
Time: 19:22:23
(UTC+00:00)
Language:

LAPAN A2 - Orbit

View from above orbital plane
View from above orbital plane
View from above satellite
View from above satellite

Ground track
Ground track

The orbit data is extracted from the following two-line orbital elements,

1 40931U 15052B   22225.44861171  .00000893  00000-0  35029-4 0  9998
2 40931   5.9964 122.4878 0012592 259.6192 100.2618 14.76841985371784
Epoch (UTC): 13 August 2022 10:46:00
Eccentricity: 0.0012592
inclination: 5.9964°
perigee height: 630 km
apogee height: 648 km
right ascension of ascending node: 122.4878°
argument of perigee: 259.6192°
revolutions per day: 14.76841985
mean anomaly at epoch: 100.2618°
orbit number at epoch: 37178

The dashed part of the orbit path shows where the satellite is in the earth's shadow,  

DLR